Location: Tamazert
(32.6352°N, 5.2072°W)
Time: 16:43:49
(UTC+00:00)

Vanguard 3 - Pass Details

Date: 05 October 2022
Orbit: 509 x 3255 km, 33.3° (Epoch: 08 December)

Event Time Altitude Azimuth Distance (km) Brightness Sun altitude
Rises 15:37:40 0° 269° (W) 4,680 12.0 28.0°
Reaches altitude 10° 15:41:31 10° 253° (WSW) 4,128 12.5 27.3°
Maximum altitude 15:49:17 20° 211° (SSW) 4,094 11.9 25.8°
Drops below altitude 10° 15:59:41 10° 171° (S) 5,674 11.7 23.8°
Sets 16:06:37 0° 158° (SSE) 7,022 11.9 22.4°
